Regional Weather Roundup
Issued by NWS Charleston, SC

Current Version | Previous Version | Graphics & Text | Print | Product List | Glossary On
Versions: 1 2 3 4 5 6 7 8 9 10 11 12 13 14 15 16 17 18 19 20 21 22 23 24 25 26 27 28 29 30 31 32 33 34 35 36 37 38 39 40 41 42 43 44 45 46 47 48 49 50
000 ASUS42 KCHS 271913 RWRCHS REGIONAL WEATHER ROUNDUP NATIONAL WEATHER SERVICE CHARLESTON SC 300 PM EDT SAT AUG 27 2016 NOTE: "FAIR" INDICATES FEW OR NO CLOUDS BELOW 12,000 FEET WITH NO SIGNIFICANT WEATHER AND/OR OBSTRUCTIONS TO VISIBILITY. NOT ALL STATIONS ARE QUALITY CONTROLLED. USE DATA WITH CAUTION... ESPECIALLY DEWPOINT OBSERVATIONS. SCZ027-030-031-034>040-042>050-272000- ...SOUTHEAST SOUTH CAROLINA... CITY SKY/WX TMP DP RH WIND PRES REMARKS N CHARLESTON MOSUNNY 92 64 39 E12 30.07F HX 93 WATERFRONT PRK N/A 87 76 69 E14 30.06F HX 97 MOUNT PLEASANT FAIR 88 73 62 E9G16 30.08S HX 96 JOHNS ISLAND FAIR 86 75 70 E12 30.08S HX 95 PINOPOLIS N/A 90 72 55 E7 30.00F HX 96 MONCKS CORNER FAIR 90 66 45 E10 30.07S HX 92 SUMMERVILLE NOT AVBL BEAUFORT MCAS PTSUNNY 90 73 57 E8 30.07F HX 98 BEAUFORT ARPT FAIR 88 73 62 E13 30.06F HX 96 HILTON HEAD IS MOSUNNY 91 73 55 NE9G18 30.07F HX 100 WALTERBORO CLEAR 95 61 31 E9 30.08S HX 95 ALLENDALE FAIR 95 66 38 SE8G15 30.05F HX 98 ...SOUTHERN MIDLANDS AND PEE DEE... CITY SKY/WX TMP DP RH WIND PRES REMARKS GEORGETOWN FAIR 88 70 55 E10G16 30.09F HX 92 KINGSTREE FAIR 95 66 38 E10G18 30.07F HX 98 ORANGEBURG MOSUNNY 91 69 48 E10 30.08F HX 96 BARNWELL NOT AVBL AIKEN FAIR 95 68 41 NE14 30.11F HX 99 MANNING FAIR 91 70 49 SE8 30.07F HX 97 COLUMBIA PTSUNNY 96 70 42 SE13G18 30.07F HX 102 SUMTER SUNNY 94 70 45 E10 30.06F HX 100 FLORENCE MOSUNNY 96 70 42 E12 30.07F HX 102 MYRTLE BEACH MOSUNNY 90 70 51 SE12 30.10F HX 95 N MYRTLE BEACH SUNNY 87 75 67 SE9 30.08F HX 96 $$ GAZ063-065-086>088-099>101-113>116-118-119-134>141-150-272000- ...SOUTHEAST GEORGIA... CITY SKY/WX TMP DP RH WIND PRES REMARKS SAVANNAH ARPT MOSUNNY 92 70 48 E14 30.05F HX 97 HUNTER AAF MOSUNNY 88 78 71 E13G18 30.03F HX 101 FORT STEWART MOSUNNY 90 71 54 E12G17 30.02F HX 97 STATESBORO SUNNY 95 66 38 E8 30.05F HX 97 SYLVANIA NOT AVBL CLAXTON MOCLDY 92 71 50 NE12 30.04F HX 98 ...CSRA...CENTRAL AND FAR SOUTHEAST GEORGIA... CITY SKY/WX TMP DP RH WIND PRES REMARKS THOMSON PTSUNNY 94 73 50 MISG 30.12S HX 103 AUGUSTA-BUSH MOSUNNY 96 68 39 E13 30.05F HX 101 AUGUSTA-DANIEL SUNNY 96 68 39 E14G21 30.07F HX 101 SWAINSBORO FAIR 95 55 26 SE14G21 30.06F HX 93 VIDALIA SUNNY 95 70 43 SE9 30.05S HX 101 EASTMAN FAIR 97 25 7 E12 30.06F HX 91 HAZLEHURST FAIR 93 67 41 CALM 30.03F HX 97 ALMA MOSUNNY 91 67 44 SE9 30.03F HX 94 WAYCROSS N/A 96 71 44 E8G16 30.02F HX 103 JESUP MOCLDY 90 77 66 E12G25 30.04S HX 102 BAXLEY FAIR 95 72 46 E8 30.03F HX 103 BRUNSWICK RAIN 86 77 74 E20 30.05S HX 97 SAINT SIMONS PTSUNNY 83 77 82 NE13 30.03F HX 92 $$ SCZ027-028-034-036>038-045-046-048>050-GAZ119-141-272000- ...LAKE AND SUPPLEMENTAL COASTAL OBSERVATIONS... STATION/POSITION TIME TEMP WIND PRES WAVE SWELL AIR SEA DIR/SP/G HT/PER HT/PER/DIR (UTC) (F) (DEG/KT/KT) (MB) (FT/S) (FT/S/D) WINYAH BAY NOT AVBL LAKE MURRAY 1800 90 110/ 8/ 15 1018.3F ACE BASIN NERRS NOT AVBL FORT PULASKI 1800 83 86 70/ 16/ 18 1019.0R SAPELO ISLAND 1800 88 60/ 13 1017.0F $$ ANZ835-935-AMZ111-154-330-350-352-354-370-450-454-472-272000- ...C-MAN AND BUOY OBSERVATIONS... STATION/POSITION TIME TEMP WIND PRES WAVE SWELL AIR SEA DIR/SP/G HT/PER HT/PER/DIR (UTC) (F) (DEG/KT/KT) (MB) (FT/S) (FT/S/D) BUOY 41004 1850 83 84 70/ 12/ 16 1017.3F 5/10 3/130/10 BUOY 41008 1850 84 85 70/ 16/ 19 1016.6F 5/ 7 2/110/ 9 FOLLY BEACH CMAN 1800 84 70/ 11/ 13 1019.1R CAPERS NEARSHORE 1808 83 85 80/ 12/ 16 1018.6R FRIPP NEARSHORE 1808 83 86 80/ 14/ 19 1017.9R STATION/POSITION TIME TEMP WIND PRES WAVE SWELL AIR SEA DIR/SP/G HT/PER HT/PER/DIR (UTC) (F) (DEG/KT/KT) (MB) (FT/S) (FT/S/D) 5E ST. MARYS GA 1801 85 N/A 6/11 2/110/11 FRYING PAN BUOY 1800 83 85 60/ 10/ 12 1018.6F BUOY 41025 1850 83 85 40/ 6/ 8 1019.0F 3/10 3/110/10 CAPE LOOKOUT NC 1900 83 90/ 10/ 11 1018.5F BUOY 41002 1850 82 84 60/ 14/ 16 1016.6F 5/ 8 3/110/ 8 BUOY 41010 NOT AVBL ST AUGUSTINE FL 1900 82 84 60/ 10/ 11 1016.3F $$

USA.gov is the U.S. government's official web portal to all federal, state and local government web resources and services.